FASAT B

Satellite information

Favourite Embed

Satellite Type and Status

PAYLOADIN ORBIT

Key statistics

Satellite FASAT B at a glance.

Uptime

9799

Days in orbit

Revolutions

≈ 14.3

Per day

Orbit

SSO

Sun Synchronous Orbit

Inclination

98.9

Latest

Satellite identification and parameters

Extended collection of information and parameters for FASAT B.

Object identification

Identified? True

Debris? False

Object name: FASAT B

International designator: 1998-043B

Object number (NORAD): 25395

Object ID (CCSDS): 25395

Country: CHILE (CHLE)

Current information (Y/N): Y

RCS size: MEDIUM

Orbital parameters

Period: 100.96 minutes

Inclination: 98.9292 deg

SMA: 7182.214 km

Apoapsis: 805.92 km

Periapsis: 802.238 km

RAAN: 103.7459 deg

Eccentricy: 0.0002563

Argument of periapsis: 178.2345 deg

Mean anomaly: 181.8844 deg

Mean motion: 14.26314269 rev/day

Mean motion (dot): 0.00000234 rev/day2

B* drag term: 0.00011687 1/REarth

Two-line elements (TLE)

Creation date: May 8, 2025, 3:01 a.m.

Reference frame: TEME

Reference center: EARTH

Epoch: May 7, 2025, 8:02 p.m. UTC

TLE line 0: 0 FASAT B

TLE line 1: 1 25395U 98043B 25127.83487882 .00000234 00000-0 11687-3 0 9998

TLE line 2: 2 25395 98.9292 103.7459 0002563 178.2345 181.8844 14.26314269395054

Live tracking on map

Real-time ground track for satellite FASAT B.

In-orbit conjunctions

A list of the most updated potential collisions computed for object FASAT B.

Target Orbit TCA Probability of collision Miss distance Type
NOAA 16 DEB SSO 2025-05-02 19:58:30 0.0001879357 861.0 (m) DEBRIS
BREEZE-M DEB (TANK) MEO 2025-04-06 19:39:45 0.0003285353 229.0 (m) DEBRIS
FENGYUN 1C DEB SSO 2025-01-16 03:11:42 0.00119355 204.0 (m) DEBRIS
DMSP 5D-2 F13 DEB SSO 2024-10-13 12:33:09 0.0001650165 588.0 (m) DEBRIS
FENGYUN 1C DEB SSO 2024-09-25 18:07:45 0.0004729255 690.0 (m) DEBRIS

Associated space launch

Resurs-O1 N4 or Resurs-O1 2 is the fourth earth observation satellite in the Russian Resurs-O1 program.

FASAT B was lifted into orbit during the mission ‘Zenit-2 | Resurs-O1’, on board a Zenit-2 space rocket.

The launch took place on July 10, 1998, 6:30 a.m. from 45/1.

For more information about the launch, click the button.

Launch to space Zenit-2 | Resurs-O1
Zenit-2 | Resurs-O1

Agency: N/A

Status: Launch Successful

Launch date: July 10, 1998, 6:30 a.m. UTC

Rocket: Zenit-2

Launch pad: 45/1

Location: Baikonur Cosmodrome, Republic of Kazakhstan

...

Latest news about this satellite

There are no fresh news available about this satellite. Check back as we update our databases every day.


Newsletter sign-up

Weekly statistics, charts and insights to help you stay on top of the space industry.